星链-35367(STARLINK-35367)

导读

STARLINK-35367是美国SpaceX公司星链星座的卫星,发射于2025年10月7日,属于Starlink Gen2网络组。星链项目旨在构建全球卫星互联网星座,为全球提供高速低延迟互联网服务,该卫星入轨后将进一步扩充星链星座规模,提升全球网络覆盖能力与服务性能。

基本信息
目录编号:
65883
目录名称:
STARLINK-35367
国际标识:
2025-224B
轨道中心:
EARTH
卫星名称:
星链-35367
卫星全名:
星链-35367(STARLINK-35367)
卫星状态:
在轨 (已飞行332 天)
发射日期:
2025-10-07 UTC
国别 :
美国 (US)
星等 :
--
轨道信息
数据来源 国际轨道数据
星历时间: 2026-09-02T15:40:36+0800
1天前
查看轨道信息
半长轴: 6840.825km
偏心率: 0.0001851
轨道倾角: 53.159°
近地点辐角 71.458°
升交点赤经 266.920°
平近点角 288.662°
近地点: 461.421km
远地点: 463.955km
周期: 93.847分钟
每日圈数: 15.344054
详细信息
固有亮度:
5
最大亮度:
2.5
卫星平台:
Starlink V1.0
覆盖范围:
全球
运营商:
太空探索技术公司
运营商所在国:
美国
制造商(研发单位):
太空探索技术公司
制造商所在国:
美国
使用方式:
暂无
卫星简介
Starlink 计划是 SpaceX 推出的全球卫星互联网项目,通过发射低轨道卫星,为全球尤其是偏远地区提供高速、低延迟的互联网服务。自 2019 年起,Starlink 已部署数千颗卫星,旨在缩小全球数字鸿沟,推动互联网普及。该项目还为军事、航空等行业提供通信支持,带来广泛经济效益。
2D轨道图
3D轨道图
轨道高度分析图
轨道倾角分析图
轨道综合分析图
查看轨道综合分析图
交会数据列表
事件ID 空间交会对象 最接近时刻(TCA) 交会距离 交会风险概率(CRP) 交会风险指数(CRI) 操作
CDM_260903-172406-430706-588321
2026-09-03T
17:24:05+0000
0.699 km
远距离
7.940811E-5 中风险 0.73